timestamp,wind_dir_avg,wind_spd_avg,wind_spd_max_dir,wind_spd_gust,battery_voltage,lat,long
2023-02-13 00:04:01+00:00,280.0,10.88,291.0,12.05,12.33,47.59359,-54.27349
2023-02-13 00:14:00+00:00,290.0,10.78,293.0,12.22,12.33,47.59359,-54.27349
2023-02-13 00:24:00+00:00,320.0,7.38,323.0,8.68,12.33,47.59359,-54.27349
2023-02-13 00:34:00+00:00,298.0,5.67,303.0,6.27,12.33,47.59359,-54.27349
2023-02-13 00:44:00+00:00,292.0,4.87,293.0,5.58,12.33,47.59359,-54.27349
2023-02-13 00:54:00+00:00,293.0,5.05,296.0,5.61,12.33,47.59359,-54.27349
2023-02-13 01:04:00+00:00,276.0,4.39,276.0,4.78,12.33,47.59359,-54.27349
2023-02-13 01:14:00+00:00,263.0,4.43,262.0,5.15,12.33,47.59359,-54.27349
2023-02-13 01:24:00+00:00,261.0,5.13,260.0,5.44,12.33,47.59359,-54.27349
2023-02-13 01:34:00+00:00,250.0,5.26,245.0,5.89,12.33,47.59359,-54.27349
2023-02-13 01:44:00+00:00,253.0,6.16,254.0,7.01,12.33,47.59359,-54.27349
2023-02-13 01:54:00+00:00,250.0,5.96,253.0,6.72,12.33,47.59359,-54.27349
2023-02-13 02:04:00+00:00,251.0,5.6,249.0,6.67,12.33,47.59359,-54.27349
2023-02-13 02:14:00+00:00,270.0,5.21,276.0,6.78,12.25,47.59359,-54.27349
2023-02-13 02:24:00+00:00,276.0,6.07,279.0,7.24,12.25,47.59359,-54.27349
2023-02-13 02:34:00+00:00,279.0,6.32,277.0,7.56,12.25,47.59359,-54.27349
2023-02-13 02:44:00+00:00,293.0,5.68,301.0,6.28,12.25,47.59359,-54.27349
2023-02-13 02:54:00+00:00,287.0,5.98,286.0,6.54,12.25,47.59359,-54.27349
2023-02-13 03:04:00+00:00,282.0,7.35,283.0,8.34,12.25,47.59359,-54.27349
2023-02-13 03:14:00+00:00,278.0,7.43,276.0,8.9,12.25,47.59359,-54.27349
2023-02-13 03:24:00+00:00,282.0,7.74,284.0,9.92,12.25,47.59359,-54.27349
2023-02-13 03:34:00+00:00,267.0,7.03,265.0,8.71,12.25,47.59359,-54.27349
2023-02-13 03:44:00+00:00,274.0,6.93,276.0,8.37,12.25,47.59359,-54.27349
2023-02-13 03:54:00+00:00,289.0,7.12,296.0,8.42,12.25,47.59359,-54.27349
2023-02-13 04:04:00+00:00,279.0,7.67,282.0,8.94,12.25,47.59359,-54.27349
2023-02-13 04:14:01+00:00,285.0,7.4,283.0,8.7,12.25,47.59359,-54.27349
2023-02-13 04:24:01+00:00,297.0,6.45,305.0,7.38,12.25,47.59359,-54.27349
2023-02-13 04:34:01+00:00,295.0,6.19,292.0,7.29,12.25,47.59359,-54.27349
2023-02-13 04:44:01+00:00,301.0,6.88,293.0,7.85,12.25,47.59359,-54.27349
2023-02-13 04:54:01+00:00,303.0,7.92,300.0,9.2,12.25,47.59359,-54.27349
2023-02-13 05:04:01+00:00,289.0,5.47,285.0,6.17,12.25,47.59359,-54.27349
2023-02-13 05:14:00+00:00,283.0,5.51,287.0,6.14,12.17,47.59359,-54.27349
2023-02-13 05:24:00+00:00,278.0,5.36,280.0,6.07,12.17,47.59359,-54.27349
2023-02-13 05:34:00+00:00,255.0,5.85,262.0,6.54,12.17,47.59359,-54.27349
2023-02-13 05:44:00+00:00,229.0,4.39,226.0,5.23,12.17,47.59359,-54.27349
2023-02-13 05:54:00+00:00,239.0,3.91,236.0,4.56,12.17,47.59359,-54.27349
2023-02-13 06:04:00+00:00,227.0,4.26,226.0,5.04,12.17,47.59359,-54.27349
2023-02-13 06:14:00+00:00,249.0,4.15,245.0,4.93,12.17,47.59359,-54.27349
2023-02-13 06:24:00+00:00,234.0,4.62,231.0,5.21,12.17,47.59359,-54.27349
2023-02-13 06:34:00+00:00,223.0,4.3,229.0,4.97,12.17,47.59359,-54.27349
2023-02-13 06:44:00+00:00,249.0,5.04,253.0,6.67,12.17,47.59359,-54.27349
2023-02-13 06:54:00+00:00,255.0,5.36,257.0,6.74,12.17,47.59359,-54.27349
2023-02-13 07:04:00+00:00,247.0,4.59,252.0,5.09,12.17,47.59359,-54.27349
2023-02-13 07:14:00+00:00,240.0,4.75,238.0,5.57,12.17,47.59359,-54.27349
2023-02-13 07:24:00+00:00,246.0,6.02,253.0,6.75,12.17,47.59359,-54.27349
2023-02-13 07:34:00+00:00,243.0,6.09,249.0,7.48,12.17,47.59359,-54.27349
2023-02-13 07:44:00+00:00,248.0,6.76,248.0,7.64,12.17,47.59359,-54.27349
2023-02-13 07:54:00+00:00,254.0,7.84,254.0,8.76,12.17,47.59359,-54.27349
2023-02-13 08:04:00+00:00,247.0,7.62,250.0,8.54,12.17,47.59359,-54.27349
2023-02-13 08:14:00+00:00,244.0,7.77,242.0,9.07,12.17,47.59359,-54.27349
2023-02-13 08:24:00+00:00,252.0,5.93,253.0,7.05,12.17,47.59359,-54.27349
2023-02-13 08:34:00+00:00,248.0,7.37,246.0,8.82,12.17,47.59359,-54.27349
2023-02-13 08:44:00+00:00,258.0,7.32,247.0,8.89,12.17,47.59359,-54.27349
2023-02-13 08:54:00+00:00,260.0,7.1,260.0,8.16,12.17,47.59359,-54.27349
2023-02-13 09:04:00+00:00,256.0,5.86,247.0,6.7,12.17,47.59359,-54.27349
2023-02-13 09:14:00+00:00,272.0,6.19,280.0,7.26,12.17,47.59359,-54.27349
2023-02-13 09:24:00+00:00,251.0,5.88,247.0,7.37,12.17,47.59359,-54.27349
2023-02-13 09:34:00+00:00,258.0,5.94,261.0,8.58,12.17,47.59359,-54.27349
2023-02-13 09:44:00+00:00,256.0,6.19,255.0,7.14,12.17,47.59359,-54.27349
2023-02-13 09:54:00+00:00,267.0,5.68,266.0,6.91,12.17,47.59359,-54.27349
2023-02-13 10:04:00+00:00,265.0,5.04,261.0,6.45,12.17,47.59359,-54.27349
2023-02-13 10:14:00+00:00,262.0,4.27,258.0,4.66,12.17,47.59359,-54.27349
2023-02-13 10:24:00+00:00,285.0,4.19,288.0,4.89,12.17,47.59359,-54.27349
2023-02-13 10:34:00+00:00,267.0,3.57,263.0,4.07,12.17,47.59359,-54.27349
2023-02-13 10:44:00+00:00,258.0,3.62,255.0,4.39,12.17,47.59359,-54.27349
2023-02-13 10:54:00+00:00,281.0,3.6,283.0,4.13,12.17,47.59359,-54.27349
2023-02-13 11:04:00+00:00,281.0,3.73,282.0,4.18,12.17,47.59359,-54.27349
2023-02-13 11:14:00+00:00,285.0,3.28,286.0,3.57,12.73,47.59359,-54.27349
2023-02-13 11:24:00+00:00,282.0,3.75,284.0,4.27,12.73,47.59359,-54.27349
2023-02-13 11:34:00+00:00,270.0,4.06,269.0,4.58,12.73,47.59359,-54.27349
2023-02-13 11:44:00+00:00,253.0,4.32,251.0,5.09,12.73,47.59359,-54.27349
2023-02-13 11:54:00+00:00,270.0,4.92,266.0,5.48,12.73,47.59359,-54.27349
2023-02-13 12:04:00+00:00,284.0,5.39,290.0,6.14,12.73,47.59359,-54.27349
2023-02-13 12:14:00+00:00,276.0,3.85,275.0,4.97,13.76,47.59359,-54.27349
2023-02-13 12:24:00+00:00,249.0,3.89,234.0,5.01,13.76,47.59359,-54.27349
2023-02-13 12:34:00+00:00,277.0,4.84,272.0,5.25,13.76,47.59359,-54.27349
2023-02-13 12:44:00+00:00,254.0,3.98,253.0,4.54,13.76,47.59359,-54.27349
2023-02-13 12:54:00+00:00,258.0,5.26,264.0,6.8,13.76,47.59359,-54.27349
2023-02-13 13:04:00+00:00,268.0,4.96,265.0,5.77,13.76,47.59359,-54.27349
2023-02-13 13:14:00+00:00,273.0,4.91,277.0,5.71,14.32,47.59359,-54.27349
2023-02-13 13:24:00+00:00,256.0,4.82,249.0,6.2,14.32,47.59359,-54.27349
2023-02-13 13:34:00+00:00,268.0,4.95,267.0,5.55,14.32,47.59359,-54.27349
2023-02-13 13:44:00+00:00,269.0,5.23,271.0,5.87,14.32,47.59359,-54.27349
2023-02-13 13:54:00+00:00,275.0,5.55,271.0,7.08,14.32,47.59359,-54.27349
2023-02-13 14:04:00+00:00,270.0,5.39,270.0,7.51,14.32,47.59359,-54.27349
2023-02-13 14:14:00+00:00,265.0,5.24,266.0,7.28,13.68,47.59359,-54.27349
2023-02-13 14:24:00+00:00,268.0,3.67,274.0,4.76,13.68,47.59359,-54.27349
2023-02-13 14:34:00+00:00,266.0,3.94,272.0,4.96,13.68,47.59359,-54.27349
2023-02-13 14:44:00+00:00,258.0,4.2,267.0,4.9,13.68,47.59359,-54.27349
2023-02-13 14:54:00+00:00,280.0,4.39,280.0,5.08,13.68,47.59359,-54.27349
2023-02-13 15:04:00+00:00,260.0,4.11,261.0,4.74,13.68,47.59359,-54.27349
2023-02-13 15:14:00+00:00,292.0,5.06,298.0,5.53,13.92,47.59359,-54.27349
2023-02-13 15:24:00+00:00,274.0,5.92,271.0,7.3,13.92,47.59359,-54.27349
2023-02-13 15:34:00+00:00,291.0,5.62,293.0,6.71,13.92,47.59359,-54.27349
2023-02-13 15:44:00+00:00,292.0,5.54,292.0,6.72,13.92,47.59359,-54.27349
2023-02-13 15:54:00+00:00,283.0,5.59,286.0,6.69,13.92,47.59359,-54.27349
2023-02-13 16:04:00+00:00,292.0,5.07,288.0,6.2,13.92,47.59359,-54.27349
2023-02-13 16:14:00+00:00,278.0,4.35,293.0,5.23,14.64,47.59359,-54.27349
2023-02-13 16:24:00+00:00,290.0,4.05,293.0,4.37,14.64,47.59359,-54.27349
2023-02-13 16:34:00+00:00,285.0,4.96,280.0,5.79,14.64,47.59359,-54.27349
2023-02-13 16:44:00+00:00,278.0,4.08,285.0,4.57,14.64,47.59359,-54.27349
2023-02-13 16:54:00+00:00,277.0,4.97,279.0,5.51,14.64,47.59359,-54.27349
2023-02-13 17:04:00+00:00,269.0,5.1,268.0,5.65,14.64,47.59359,-54.27349
2023-02-13 17:14:01+00:00,253.0,4.8,258.0,5.68,13.68,47.59359,-54.27349
2023-02-13 17:24:01+00:00,288.0,4.86,286.0,5.63,13.68,47.59359,-54.27349
2023-02-13 17:34:01+00:00,284.0,4.17,288.0,4.92,13.68,47.59359,-54.27349
2023-02-13 17:44:01+00:00,295.0,4.32,298.0,4.81,13.68,47.59359,-54.27349
2023-02-13 17:54:01+00:00,286.0,4.33,307.0,5.49,13.68,47.59359,-54.27349
2023-02-13 18:04:01+00:00,275.0,5.2,284.0,6.0,13.68,47.59359,-54.27349
2023-02-13 18:14:00+00:00,263.0,5.2,257.0,5.57,14.4,47.59359,-54.27349
2023-02-13 18:24:00+00:00,263.0,4.45,267.0,5.17,14.4,47.59359,-54.27349
2023-02-13 18:34:00+00:00,263.0,3.8,268.0,4.34,14.4,47.59359,-54.27349
2023-02-13 18:44:00+00:00,246.0,2.9,248.0,3.2,14.4,47.59359,-54.27349
2023-02-13 18:54:00+00:00,281.0,3.27,292.0,4.02,14.4,47.59359,-54.27349
2023-02-13 19:04:00+00:00,284.0,3.51,284.0,3.82,14.4,47.59359,-54.27349
2023-02-13 19:14:00+00:00,275.0,3.09,282.0,3.37,13.6,47.59359,-54.27349
2023-02-13 19:24:00+00:00,300.0,3.89,299.0,4.41,13.6,47.59359,-54.27349
2023-02-13 19:34:00+00:00,294.0,3.53,303.0,3.96,13.6,47.59359,-54.27349
2023-02-13 19:44:00+00:00,4.0,1.99,8.0,2.69,13.6,47.59359,-54.27349
2023-02-13 19:54:00+00:00,337.0,2.27,341.0,2.48,13.6,47.59359,-54.27349
2023-02-13 20:04:00+00:00,5.0,2.54,8.0,2.89,13.6,47.59359,-54.27349
2023-02-13 20:14:00+00:00,355.0,1.72,6.0,2.17,13.37,47.59359,-54.27349
2023-02-13 20:24:00+00:00,35.0,2.8,33.0,3.12,13.37,47.59359,-54.27349
2023-02-13 20:34:00+00:00,41.0,2.59,47.0,3.03,13.37,47.59359,-54.27349
2023-02-13 20:44:00+00:00,43.0,2.6,48.0,3.11,13.37,47.59359,-54.27349
2023-02-13 20:54:00+00:00,42.0,2.49,46.0,2.85,13.37,47.59359,-54.27349
2023-02-13 21:04:00+00:00,43.0,3.16,52.0,3.95,13.37,47.59359,-54.27349
2023-02-13 21:14:00+00:00,50.0,3.74,43.0,4.19,12.65,47.59359,-54.27349
2023-02-13 21:24:00+00:00,62.0,3.59,57.0,3.8,12.65,47.59359,-54.27349
2023-02-13 21:34:00+00:00,68.0,3.32,73.0,3.58,12.65,47.59359,-54.27349
2023-02-13 21:44:00+00:00,77.0,3.5,83.0,3.99,12.65,47.59359,-54.27349
2023-02-13 21:54:00+00:00,86.0,3.43,76.0,4.33,12.65,47.59359,-54.27349
2023-02-13 22:04:00+00:00,79.0,3.37,76.0,3.99,12.65,47.59359,-54.27349
2023-02-13 22:14:00+00:00,74.0,3.88,70.0,4.52,12.41,47.59359,-54.27349
2023-02-13 22:24:00+00:00,76.0,4.28,68.0,4.85,12.41,47.59359,-54.27349
2023-02-13 22:34:00+00:00,71.0,4.78,75.0,5.99,12.41,47.59359,-54.27349
2023-02-13 22:44:00+00:00,67.0,5.01,65.0,5.57,12.41,47.59359,-54.27349
2023-02-13 22:54:00+00:00,75.0,4.09,64.0,5.48,12.41,47.59359,-54.27349
2023-02-13 23:04:00+00:00,74.0,4.93,72.0,7.05,12.41,47.59359,-54.27349
2023-02-13 23:14:00+00:00,72.0,5.29,67.0,7.24,12.41,47.59359,-54.27349
2023-02-13 23:24:00+00:00,71.0,5.09,70.0,6.91,12.41,47.59359,-54.27349
2023-02-13 23:34:00+00:00,72.0,6.15,76.0,8.0,12.41,47.59359,-54.27349
2023-02-13 23:44:00+00:00,75.0,4.94,71.0,6.76,12.41,47.59359,-54.27349
2023-02-13 23:54:00+00:00,71.0,7.17,63.0,9.78,12.41,47.59359,-54.27349
